This demonstration page uses our WeatherBlox Daily Observations layout. Learn more.

Left ArrowRight Arrow

31.84235, -102.49876

Hourly Observations for November 27, 2015

Temp ( °F °C ) Dew Point ( °F °C ) Humidity (%) Winds ( mph kmh ) Pressure ( in mb ) Visibility ( mi km ) Precip ( " mm )
12:12 am 00:12 Cloudy with Rain 64 17.8 62 16.7 93 93 S 15 24 30.00 1016 3 5 0.04 1.02
12:53 am 00:53 Cloudy with Mist and Fog 65 18.3 62 16.7 90 90 SSE 9 15 29.96 1015 6 10 0.09 2.29
1:47 am 01:47 Cloudy with Light Rain 63 17 61 16 94 94 NNE 16 26 30.00 1016 4 6 0.01 0.25
1:53 am 01:53 Cloudy with Rain 54 12.2 51 10.6 90 90 NE 21 33 30.01 1016 4 6 0.02 0.51
2:00 am 02:00 Cloudy with Rain 51 10.6 49 9.4 92 92 NE 18 30 30.09 1019 4 6 0.01 0.25
2:30 am 02:30 Cloudy with Light Rain 48 8.9 46 7.8 93 93 NE 17 28 30.09 1019 10 16 0.02 0.51
2:53 am 02:53 Cloudy with Light Rain 47 8.3 44 6.7 90 90 NE 20 31 30.03 1017 6 10 0.06 1.52
3:53 am 03:53 Cloudy 45 7.2 43 6.1 93 93 NE 17 28 30.04 1017 10 16 0.00 0.03
4:53 am 04:53 Cloudy with Light Rain 43 6.1 41 5 93 93 NE 20 31 30.07 1018 7 11 0.01 0.25
5:05 am 05:05 Cloudy with Light Rain 42 5.6 40 4.4 92 92 NE 24 39 30.15 1021 4 6 0.00 0.03
5:43 am 05:43 Cloudy with Light Rain 41 5 38 3.3 89 89 ENE 23 37 30.15 1021 4 6 0.03 0.76
5:53 am 05:53 Cloudy with Light Rain 40 4.4 38 3.3 93 93 NE 20 31 30.09 1019 10 16 0.03 0.76
6:42 am 06:42 Cloudy with Light Rain 39 3.9 37 2.8 93 93 ENE 20 31 30.24 1024 3 4 0.00 0.03
6:53 am 06:53 Cloudy with Light Rain 39 3.9 36 2.2 89 89 NE 21 33 30.12 1020 4 6 0.00 0.03
7:53 am 07:53 Cloudy with Mist and Fog 38 3.3 36 2.2 93 93 ENE 16 26 30.16 1021 6 10 0.04 1.02
8:40 am 08:40 Cloudy with Light Rain 37 2.8 34 1.1 89 89 NE 22 35 30.30 1026 4 6 0.00 0.03
8:46 am 08:46 Cloudy with Mist and Fog 37 2.8 34 1.1 89 89 NE 21 33 30.30 1026 3 5 0.00 0.03
8:53 am 08:53 Cloudy with Light Rain 37 2.8 34 1.1 89 89 NE 21 33 30.20 1023 3 4 0.00 0.03
9:09 am 09:09 Cloudy with Light Rain 37 2.8 34 1.1 89 89 NE 16 26 30.33 1027 2 3 0.01 0.25
9:48 am 09:48 Cloudy with Light Rain 37 3 36 2 93 93 NE 17 28 30.39 1029 3 4 0.01 0.25
9:53 am 09:53 Cloudy with Light Rain 37 2.8 34 1.1 89 89 NE 15 24 30.23 1024 2 2 0.01 0.25
10:12 am 10:12 Cloudy with Light Rain 37 2.8 34 1.1 89 89 NE 22 35 30.33 1027 3 5 0.00 0.03
10:24 am 10:24 Cloudy with Mist and Fog 37 2.8 34 1.1 89 89 NE 18 30 30.39 1029 5 8 0.00 0.03
10:42 am 10:42 Cloudy with Mist and Fog 37 2.8 35 1.7 93 93 NNE 16 26 30.39 1029 3 4 0.00 0.03
10:53 am 10:53 Cloudy with Light Rain 37 2.8 34 1.1 89 89 NNE 16 26 30.26 1025 2 2 0.00 0.03
11:02 am 11:02 Cloudy with Light Snow 36 2.2 34 1.1 93 93 NNE 13 20 30.39 1029 1 2 0.00 0.03
11:26 am 11:26 Cloudy with Light Rain 36 2.2 34 1.1 93 93 NNE 15 24 30.39 1029 3 4 0.00 0.03
11:42 am 11:42 Cloudy with Mist and Fog 36 2.2 33 0.6 89 89 NNE 20 31 30.39 1029 5 8 0.00 0.03
11:53 am 11:53 Cloudy 36 2.2 34 1.1 93 93 NE 20 31 30.25 1025 7 11 0.00 0.03
12:05 pm 12:05 Cloudy 36 2.2 34 1.1 93 93 NE 17 28 30.39 1029 7 11 0.00 0.00
12:20 pm 12:20 Cloudy with Mist and Fog 36 2.2 34 1.1 93 93 NE 16 26 30.39 1029 6 10 0.00 0.00
12:44 pm 12:44 Cloudy with Light Rain 36 2.2 34 1.1 93 93 NNE 15 24 30.39 1029 2 3 0.00 0.03
12:53 pm 12:53 Cloudy with Light Rain 36 2.2 34 1.1 93 93 NNE 17 28 30.23 1024 2 3 0.00 0.03
1:11 pm 13:11 Cloudy with Light Rain 37 2.8 34 1.1 89 89 NE 15 24 30.33 1027 7 11 0.00 0.03
1:36 pm 13:36 Cloudy with Mist and Fog 36 2.2 33 0.6 89 89 NNE 12 19 30.39 1029 6 10 0.00 0.03
1:53 pm 13:53 Cloudy with Light Rain 35 1.7 32 0 89 89 NNE 16 26 30.23 1024 7 11 0.00 0.03
2:53 pm 14:53 Cloudy 36 2.2 32 0 86 86 NNE 16 26 30.22 1024 10 16 0.01 0.25
3:53 pm 15:53 Cloudy 35 1.7 32 0 89 89 NNE 12 19 30.25 1024 10 16 0.00 0.00
4:25 pm 16:25 Cloudy with Rain 35 1.7 32 0 89 89 NNE 14 22 30.36 1028 3 4 0.02 0.51
4:36 pm 16:36 Cloudy with Light Rain 35 1.7 32 0 89 89 NNE 15 24 30.36 1028 3 5 0.04 1.02
4:44 pm 16:44 Cloudy with Rain 35 1.7 32 0 89 89 NNE 16 26 30.33 1027 3 4 0.06 1.52
4:51 pm 16:51 Cloudy with Rain 36 2 32 0 87 87 NNE 14 22 30.33 1027 3 5 0.08 2.03
4:53 pm 16:53 Cloudy with Rain 35 1.7 32 0 89 89 NNE 16 26 30.24 1024 3 5 0.09 2.29
5:00 pm 17:00 Cloudy with Rain 35 1.7 32 0 89 89 NE 13 20 30.33 1027 3 4 0.01 0.25
5:07 pm 17:07 Cloudy with Rain 35 1.7 32 0 89 89 NNE 13 20 30.36 1028 3 5 0.03 0.76
5:23 pm 17:23 Cloudy with Light Rain 34 1.1 32 0 92 92 NNE 13 20 30.36 1028 4 6 0.05 1.27
5:37 pm 17:37 Cloudy with Light Rain 34 1.1 32 0 92 92 NNE 15 24 30.36 1028 5 8 0.07 1.78
5:53 pm 17:53 Cloudy with Rain 34 1.1 31 -0.6 89 89 NE 14 22 30.25 1024 4 6 0.10 2.54
6:06 pm 18:06 Cloudy with Heavy Rain 34 1.1 31 -0.6 89 89 NNE 13 20 30.33 1027 3 4 0.08 2.03
6:16 pm 18:16 Cloudy with Light Rain 34 1.1 31 -0.6 89 89 NNE 12 19 30.36 1028 6 10 0.09 2.29
6:48 pm 18:48 Cloudy with Heavy Rain 34 1 32 0 93 93 N 7 11 30.39 1029 3 4 0.20 5.08
6:53 pm 18:53 Cloudy with Rain 34 1.1 32 0 92 92 N 12 19 30.30 1026 3 5 0.20 5.08
7:19 pm 19:19 Cloudy with Rain 34 1.1 31 -0.6 89 89 NE 16 26 30.36 1028 5 8 0.03 0.76
7:53 pm 19:53 Cloudy with Light Rain 34 1.1 31 -0.6 89 89 NNE 12 19 30.29 1026 6 10 0.08 2.03
8:04 pm 20:04 Cloudy with Light Rain 34 1.1 31 -0.6 89 89 NNE 9 15 30.39 1029 8 13 0.01 0.25
8:11 pm 20:11 Cloudy with Light Rain 34 1.1 32 0 92 92 NNE 8 13 30.39 1029 8 13 0.01 0.25
8:26 pm 20:26 Cloudy with Light Rain 34 1.1 32 0 92 92 NNE 10 17 30.39 1029 9 14 0.02 0.51
8:53 pm 20:53 Cloudy with Light Rain 33 0.6 31 -0.6 92 92 NNE 16 26 30.27 1025 10 16 0.03 0.76
9:06 pm 21:06 Cloudy with Light Rain 33 0.6 31 -0.6 92 92 NNE 12 19 30.36 1028 10 16 0.00 0.03
9:34 pm 21:34 Cloudy with Light Rain 33 0.6 30 -1.1 89 89 NNE 8 13 30.39 1029 10 16 0.01 0.25
9:53 pm 21:53 Cloudy with Light Freezing Rain 33 0.6 30 -1.1 89 89 N 10 17 30.31 1026 7 11 0.03 0.76
10:02 pm 22:02 Cloudy with Light Freezing Rain 33 0.6 30 -1.1 89 89 NNE 10 17 30.36 1028 8 13 0.00 0.03
10:13 pm 22:13 Cloudy with Light Freezing Rain 33 0.6 30 -1.1 89 89 NE 14 22 30.36 1028 9 14 0.01 0.25
10:20 pm 22:20 Cloudy with Freezing Rain 33 0.6 30 -1.1 89 89 NNE 12 19 30.36 1028 6 10 0.01 0.25
10:26 pm 22:26 Cloudy with Light Freezing Rain 33 0.6 30 -1.1 89 89 NNE 10 17 30.36 1028 6 10 0.02 0.51
10:35 pm 22:35 Cloudy with Light Freezing Rain 33 0.6 30 -1.1 89 89 NNE 13 20 30.36 1028 8 13 0.02 0.51
10:53 pm 22:53 Cloudy with Light Freezing Rain 33 0.6 30 -1.1 89 89 NNW 8 13 30.33 1027 6 10 0.04 1.02
10:58 pm 22:58 Cloudy with Freezing Rain 33 0.6 30 -1.1 89 89 N 8 13 30.42 1030 5 8 0.00 0.03
11:09 pm 23:09 Cloudy with Freezing Rain 33 0.6 30 -1.1 89 89 N 9 15 30.39 1029 4 6 0.03 0.76
11:19 pm 23:19 Cloudy with Light Freezing Rain 33 0.6 30 -1.1 89 89 N 9 15 30.39 1029 5 8 0.04 1.02
11:23 pm 23:23 Cloudy with Freezing Rain 33 0.6 30 -1.1 89 89 N 12 19 30.39 1029 5 8 0.05 1.27
11:27 pm 23:27 Cloudy with Freezing Rain 33 0.6 30 -1.1 89 89 N 9 15 30.39 1029 4 6 0.07 1.78
11:53 pm 23:53 Cloudy with Freezing Rain 33 0.6 30 -1.1 89 89 NE 9 15 30.27 1025 6 10 0.11 2.79

Powered by AerisWeather